EHI
0 0 1 1 1 0 0 0 0 0 0 0 0 1 2 2 1 0 0 0 0 0 0 0 0 0 0 0 0 0 0 0 1 1 1 0 0 0 0 0 0 1 1
0 0 1 2 1 0 0 0 0 0 0 0 0 0 1 1 0 0 0 0 0 0 0 0 0 0 0 0 0 0 0 0 0 0 0 0 0 0 0 0 0 1 3
0 0 1 1 1 0 0 1 1 1 1 0 0 0 0 0 0 0 0 0 0 0 0 1 0 0 0 0 0 0 0 0 0 0 0 0 0 0 0 0 0 1 2
0 0 1 3 3 2 1 1 2 3 3 1 0 0 0 0 0 0 0 0 0 0 0 0 0 0 0 0 0 0 0 0 0 0 0 0 0 0 0 0 0 0 1
0 0 2 6 7 4 2 1 1 2 2 2 0 0 0 0 0 0 0 0 0 0 0 0 0 0 0 0 0 0 0 0 0 0 0 0 0 0 0 0 0 0 0
0 0 3 7 9 8 6 3 1 0 1 1 1 0 0 0 0 0 0 0 0 0 0 0 0 0 0 0 0 0 0 0 0 0 0 0 0 0 0 0 0 0 0
0 0 2 6 8 9 9 7 4 3 2 1 1 0 0 0 0 0 0 0 0 0 0 0 0 0 0 0 0 0 0 0 0 0 0 0 0 0 0 0 0 0 0
0 0 1 2 4 5 7 8 6 5 4 2 1 0 0 0 0 0 0 0 0 0 0 0 0 0 0 0 0 0 0 0 0 0 0 0 0 0 0 0 0 0 0
0 0 0 0 0 1 2 4 4 4 4 3 1 0 0 0 0 0 0 0 0 0 0 0 0 0 0 0 0 0 0 0 0 0 0 0 0 0 0 0 0 0 0
0 0 0 0 0 0 0 1 1 1 2 2 1 1 1 0 0 0 0 0 0 0 0 0 0 0 0 0 0 0 0 0 0 0 0 0 0 0 0 0 0 0 0
0 0 0 0 0 0 0 0 0 0 1 1 1 2 1 0 0 0 0 0 0 0 0 0 0 0 0 0 0 0 0 0 0 0 0 0 0 0 0 0 0 0 0
0 0 0 0 0 0 0 0 1 1 0 1 3 3 1 0 1 0 0 0 0 0 0 0 0 0 0 0 0 0 0 0 0 0 0 0 0 0 0 0 0 0 0
0 0 0 0 0 0 0 0 1 2 1 1 4 4 2 1 1 0 0 0 0 0 0 0 0 0 0 0 0 0 0 0 0 0 0 0 0 0 0 0 0 0 0
0 0 0 0 0 0 0 0 1 2 1 1 3 3 3 3 2 1 1 1 0 0 1 0 0 0 0 0 0 0 0 0 0 0 0 0 0 0 0 0 0 0 0
0 0 0 0 0 0 0 0 0 1 1 0 1 2 2 3 3 3 3 3 1 2 3 1 0 0 0 0 0 0 0 0 0 0 0 0 0 0 0 0 0 0 0
0 0 0 0 0 0 0 0 0 0 0 0 0 1 1 2 3 4 4 4 2 3 4 2 0 0 0 0 0 0 0 0 0 0 0 0 0 0 0 0 0 0 0
0 0 0 0 0 0 0 0 0 0 0 0 0 0 0 1 2 2 2 2 1 1 2 2 1 1 0 0 0 0 0 0 0 0 0 0 0 0 0 0 0 0 0
0 0 0 0 0 0 0 0 0 0 0 0 0 0 0 1 1 1 1 1 0 0 1 1 1 1 0 0 0 0 0 0 0 0 0 0 0 0 0 0 0 0 0
0 0 0 0 0 0 0 0 0 0 0 0 0 0 0 0 0 0 1 1 1 1 2 2 2 2 1 0 0 0 0 0 0 0 0 0 0 0 0 0 0 0 0
0 0 0 0 0 0 0 0 0 0 0 0 0 0 0 0 0 1 2 2 3 3 3 3 3 3 3 2 0 0 0 0 0 0 0 0 0 0 0 0 0 0 0
0 0 0 0 0 0 0 0 0 0 0 0 0 0 0 0 1 1 2 4 6 6 4 2 3 4 5 4 1 0 0 0 0 0 0 0 0 0 0 0 0 0 0
0 0 0 0 0 0 0 0 0 0 0 0 0 0 0 0 1 2 3 5 7 8 5 2 1 3 5 5 3 2 0 0 0 0 0 0 0 0 0 0 0 0 0
0 0 0 0 0 0 0 0 0 0 0 0 0 0 0 0 0 1 2 3 5 7 6 3 2 2 3 4 4 3 1 0 1 1 0 0 1 1 0 0 0 0 0
0 0 0 0 0 0 0 0 0 0 0 0 0 0 0 0 0 0 1 2 3 4 4 3 2 2 2 2 3 3 1 1 2 2 1 0 1 1 1 0 0 0 0
0 0 0 0 0 0 0 0 0 0 0 0 0 0 0 0 0 0 0 1 1 1 1 1 1 1 1 2 4 4 3 3 2 2 1 0 1 1 2 1 1 1 0
0 0 0 0 0 0 0 0 0 0 0 0 0 0 0 0 0 0 0 0 0 0 1 1 1 0 1 3 6 6 5 3 2 1 0 0 0 1 2 2 2 2 1
Wind_Speed
5 6 8 6 7 7 6 6 5 5 5 5 6 5 5 5 5 4 3 2 2 1 1 1 1 2 2 3 3 3 3 4 3 3 3 4 4 4 4 4 3 5 7
4 6 8 6 7 6 6 6 5 5 5 5 5 5 5 5 4 4 3 2 2 1 1 0 0 1 1 2 2 2 3 3 3 3 1 3 4 3 3 3 2 4 6
4 5 7 6 6 6 6 6 6 6 6 6 5 5 5 5 4 4 3 3 3 2 2 1 1 0 0 1 2 2 2 2 2 1 4 2 5 4 2 3 3 5 5
4 4 4 5 4 5 5 6 6 6 6 6 6 6 5 5 5 5 4 4 4 3 3 2 2 1 0 1 1 2 2 2 1 3 4 1 2 6 2 2 3 4 4
3 2 4 1 1 3 4 5 5 6 6 6 6 6 6 6 6 6 5 5 5 4 4 3 3 2 1 1 1 1 2 1 2 6 1 1 2 4 1 2 2 4 4
4 3 4 3 2 2 3 5 6 6 7 7 7 7 7 7 7 7 7 6 6 6 5 4 4 3 3 2 1 1 2 1 6 2 0 0 2 4 1 1 2 3 4
5 5 5 7 6 5 4 4 5 6 7 7 8 8 8 8 8 8 8 7 7 7 6 5 5 4 4 3 2 2 2 3 5 1 1 0 3 3 1 1 1 3 4
7 6 6 6 7 7 7 5 5 6 6 7 8 9 9 9 9 9 9 9 8 8 7 6 5 5 5 4 3 3 3 6 4 2 1 1 4 1 1 1 1 2 3
7 7 6 7 7 7 7 8 8 7 7 7 8 9 10 10 11 11 10 10 9 9 8 7 7 6 5 5 4 4 3 4 6 3 2 1 4 1 1 1 1 2 3
7 7 7 7 7 7 6 6 8 9 8 8 8 9 9 10 11 12 12 11 10 10 10 9 8 7 7 6 5 5 4 6 6 4 2 3 4 2 2 1 1 2 3
7 6 6 6 6 6 6 5 6 6 6 7 7 8 8 8 9 9 12 9 10 11 11 10 9 8 8 8 7 5 6 6 3 4 2 6 2 3 3 2 2 3 4
8 8 6 7 6 6 5 4 4 4 4 4 5 6 6 6 6 9 6 9 11 12 12 11 10 10 10 8 10 9 7 6 5 4 3 5 2 3 3 3 3 4 4
8 8 8 8 7 6 4 4 3 3 3 4 5 5 5 6 5 6 4 6 9 11 9 9 10 9 8 6 5 7 6 5 4 3 4 5 3 3 4 4 4 4 5
8 9 9 9 8 8 7 5 5 4 4 4 5 6 5 4 5 5 4 5 5 5 6 6 5 7 8 8 9 8 7 6 4 3 4 5 3 4 4 5 5 5 5
9 9 10 10 9 9 7 6 6 5 5 6 5 6 6 5 6 6 4 4 6 5 6 6 7 7 7 8 7 8 7 7 6 6 4 7 5 5 5 5 6 6 6
9 10 10 10 9 9 8 7 7 7 6 7 6 7 8 6 6 5 5 5 5 5 5 6 7 6 6 6 8 8 7 7 7 6 5 7 7 6 6 6 6 6 7
10 10 10 10 10 10 9 9 7 7 7 7 6 8 8 7 7 6 6 6 5 5 6 6 7 5 6 6 8 8 7 7 6 7 6 5 7 9 7 7 7 7 7
10 10 10 9 10 10 9 9 7 7 7 7 6 6 8 8 8 7 6 6 6 5 5 5 5 5 6 6 6 6 6 6 8 7 6 7 6 6 9 8 7 7 8
10 10 10 10 10 10 10 8 7 7 6 6 6 6 7 8 8 7 6 6 6 5 5 6 6 5 5 5 5 5 6 6 6 6 8 8 7 6 6 10 8 7 7
9 9 9 9 10 10 8 7 6 7 6 6 5 5 7 7 7 7 6 7 6 5 5 5 6 5 5 4 5 5 4 5 5 6 7 6 6 8 7 8 8 8 8
9 9 9 10 10 8 7 7 7 7 7 6 5 7 7 7 7 7 6 6 6 6 6 7 6 6 5 4 4 4 5 6 6 5 5 6 7 6 7 8 6 6 8
9 9 10 10 10 9 7 7 6 7 6 6 5 6 7 7 6 6 7 5 6 5 7 7 7 5 4 5 4 3 4 4 5 6 5 5 6 6 7 8 8 7 6
9 9 8 10 10 9 9 7 7 6 5 5 5 5 6 6 6 6 7 6 5 6 6 7 7 8 6 6 5 4 4 5 4 4 6 6 6 5 6 7 7 8 8
8 8 9 9 10 9 9 8 9 7 7 8 6 6 7 6 5 5 6 6 6 5 6 6 7 6 7 6 5 5 4 2 3 4 4 5 6 6 6 6 7 7 7
8 8 8 9 9 9 9 8 8 7 7 6 7 7 7 6 5 5 5 5 5 5 6 6 6 7 6 7 6 5 5 4 4 3 4 5 4 5 5 6 6 6 6
7 7 7 8 9 9 9 8 8 9 9 8 8 7 6 5 4 5 4 5 5 5 5 6 6 7 7 7 6 6 5 5 5 4 4 4 5 4 5 4 5 5 5
Wind_Direction
161 157 138 175 173 174 176 176 176 171 172 169 167 164 163 165 167 164 165 168 169 161 126 106 88 79 73 59 55 57 57 61 69 76 77 81 83 93 102 121 166 127 106
151 154 143 182 182 182 181 184 188 186 183 181 180 180 180 180 178 178 185 194 203 210 210 161 78 73 64 54 49 52 58 58 58 65 75 142 114 95 108 112 16 87 114
145 151 160 181 189 192 190 193 200 201 199 196 196 195 193 192 193 199 205 213 220 227 231 238 249 185 41 34 32 42 48 46 50 43 255 201 126 113 119 127 119 121 133
131 151 149 149 195 206 207 209 214 215 213 208 209 208 206 208 211 215 221 225 230 233 236 240 249 257 281 8 11 27 24 22 22 265 243 80 108 104 120 134 142 141 136
101 107 92 93 226 238 236 232 232 232 232 227 225 221 219 220 224 226 229 231 235 238 241 244 253 263 266 300 343 4 3 359 268 260 11 39 75 95 116 144 149 153 145
72 58 68 34 360 317 281 262 253 249 245 240 237 233 229 229 231 231 230 234 238 240 241 241 246 256 261 268 304 329 337 314 255 264 8 218 108 103 117 159 169 162 159
50 40 42 36 11 354 329 304 284 274 263 255 250 246 242 241 239 236 234 237 239 241 240 238 244 249 251 253 266 288 297 287 276 277 254 177 82 95 133 153 178 167 171
37 25 25 35 14 1 347 329 308 293 285 271 264 256 252 251 249 243 240 241 240 242 242 240 243 249 247 248 252 261 274 279 250 249 238 147 84 135 162 164 180 174 172
35 28 20 11 9 7 356 346 330 312 300 290 281 269 257 252 253 250 246 245 243 242 243 240 238 242 245 248 250 251 262 280 278 256 236 144 111 184 180 181 178 183 174
38 27 19 14 6 353 345 353 339 328 319 305 287 279 269 257 251 248 245 236 240 243 241 239 236 236 237 240 242 242 248 249 243 239 238 112 122 209 195 186 181 179 159
32 22 13 7 5 352 335 347 321 316 325 313 292 280 271 257 251 240 241 236 238 244 244 238 234 233 233 223 226 228 237 243 221 247 230 94 156 219 201 188 172 160 149
17 10 4 353 349 343 336 332 309 306 299 291 287 279 273 266 259 257 244 236 242 243 243 236 233 231 233 221 193 202 229 223 232 222 144 115 204 215 197 182 176 165 156
8 5 358 346 341 337 325 314 305 299 290 273 270 271 268 266 257 250 247 232 234 235 237 218 218 226 227 230 234 218 228 237 228 222 140 136 202 209 197 186 184 176 172
2 355 352 345 338 336 331 321 302 294 291 286 277 273 266 261 259 255 243 242 244 239 238 239 234 226 231 229 229 232 216 224 226 224 141 147 201 209 199 188 186 183 180
356 349 348 340 337 334 331 314 306 302 300 293 286 278 269 265 263 256 253 247 247 246 237 236 240 235 233 236 236 239 232 222 225 218 161 159 196 210 200 190 187 185 182
351 347 345 339 336 330 323 316 313 308 297 291 285 280 274 263 258 256 253 252 248 246 249 240 237 234 232 232 234 232 239 229 227 216 208 171 185 202 203 196 189 184 183
345 343 345 336 336 332 326 320 311 303 300 296 291 287 281 273 265 257 252 251 247 238 240 244 243 237 232 227 227 228 227 233 231 220 209 208 184 184 194 198 193 188 188
343 343 343 338 335 334 329 318 312 308 305 297 293 288 285 280 271 265 256 250 244 237 232 232 237 231 227 227 226 218 222 217 232 226 216 207 205 189 180 183 187 188 189
342 340 342 342 336 335 329 318 313 308 303 298 296 293 291 286 279 269 262 259 250 238 233 233 225 221 225 223 227 223 227 221 227 228 227 220 199 200 186 160 178 184 189
342 342 344 340 338 337 331 326 323 316 312 307 301 297 299 290 285 277 265 256 252 242 235 232 227 218 223 217 227 222 221 227 226 232 236 228 215 202 197 177 179 180 184
346 346 347 344 344 342 338 332 329 327 321 316 311 309 299 291 286 278 273 263 250 244 239 232 230 221 217 208 208 217 219 224 223 220 232 227 218 205 200 193 194 182 175
348 348 347 348 345 344 340 328 318 318 313 318 316 314 310 300 293 282 272 267 253 248 241 233 225 218 215 203 196 194 207 209 217 211 213 222 222 201 211 205 196 188 190
350 348 345 345 342 344 340 333 329 327 315 324 326 322 318 310 299 289 279 270 262 256 246 236 226 220 215 209 206 196 199 210 184 198 210 212 218 208 208 214 209 195 190
349 345 343 344 343 344 340 340 339 332 329 329 323 320 318 314 307 294 282 271 261 256 253 245 234 230 222 213 208 218 227 213 182 180 199 208 211 210 213 209 214 207 195
347 346 341 341 343 346 343 342 331 335 330 327 325 326 324 324 315 303 289 274 263 256 252 250 246 237 230 224 211 203 208 216 221 194 186 188 201 211 215 214 208 212 201
345 342 341 342 346 345 341 341 343 338 334 333 333 331 327 323 318 321 307 286 270 261 254 249 246 239 234 228 222 212 201 196 201 199 193 188 193 199 206 207 215 205 200